Weather Roundup
Issued by NWS

Home | Current Version | Previous Version | Graphics & Text | Print | Product List | Glossary Off
Versions: 1 2 3 4 5 6 7 8 9 10 11 12 13 14 15 16 17 18 19 20 21 22 23 24 25 26 27 28 29 30 31 32 33 34 35 36 37 38 39 40 41 42 43 44 45 46 47 48 49 50

000
NZUS93 KARX 282110
HRRWXR

CURRENT HOURLY OBSERVATIONS ACROSS
MUCH OF THE UPPER MISSISSIPPI VALLEY
NATIONAL WEATHER SERVICE LA CROSSE WI
400 PM CDT THU AUG 28 2014


...SOUTHEAST MINNESOTA...


CITY           SKY/WX    TMP DP  RH WIND       PRES   REMARKS
ROCHESTER      RAIN      65  63  93 SE13      30.00F FOG
ROCHESTER/MAYO CLOUDY    64  63  94 E8G16     29.99F
WINONA         RAIN      70  68  94 SE8       30.00F
AUSTIN         HVY RAIN  64  63  94 E7        29.97F
ALBERT LEA     HVY RAIN  64  64 100 SE9       29.97S
DODGE CENTER   DRIZZLE   66  64  94 SE12      29.98F
PRESTON        RAIN      64  64 100 CALM      30.00F
OWATONNA       PTSUNNY   66  64  94 E8        29.97F
FARIBAULT      CLOUDY    70  63  78 E6        29.98F
$$

...ELSEWHERE IN MINNESOTA...


CITY           SKY/WX    TMP DP  RH WIND       PRES   REMARKS
MINNEAPOLIS    CLOUDY    69  65  86 SE13      29.98F
INTNL FALLS    CLOUDY    72  59  63 SE6       29.97F
DULUTH         PTSUNNY   68  55  63 E9        30.03F
RED WING       DRIZZLE   66  64  94 E7        29.98F
REDWOOD FALLS  CLOUDY    67  65  93 E8        29.93F
MANKATO        CLOUDY    70  63  78 SE10      29.95F
WORTHINGTON    CLOUDY    70  66  88 SE10      29.93S
FAIRMONT       CLOUDY    66  64  94 SE9       29.93F
$$

...SOUTHWEST WISCONSIN...


CITY           SKY/WX    TMP DP  RH WIND       PRES   REMARKS
LA CROSSE      CLOUDY    70  65  84 SE6       30.01F
PRAIRIE DU CHI CLOUDY    73  62  67 E9        30.00F
BOSCOBEL       CLOUDY    74  64  71 VRB5      30.02F
LONE ROCK      CLOUDY    76  63  64 SE7       30.04S
PLATTEVILLE    CLOUDY    72  65  79 E12       30.04S
FORT MC COY    CLOUDY    70  63  78 E7        30.04F
CAMP DOUGLAS   CLOUDY    71  66  84 SE7       30.05F
VIROQUA        CLOUDY    68  67  96 SE7       30.04S
WIS DELLS      LGT RAIN  71  60  67 E5        30.05F
$$

...ELSEWHERE IN WISCONSIN...


CITY           SKY/WX    TMP DP  RH WIND       PRES   REMARKS
MILWAUKEE      CLOUDY    68  55  63 E8        30.11F
MADISON        LGT RAIN  73  59  61 SE13      30.05F
GREEN BAY      CLOUDY    69  59  70 SE12      30.10F
EAU CLAIRE     LGT RAIN  69  65  86 SE7       30.03S
BLACK RVR FLS  LGT RAIN  69  67  94 E5        30.03F
MEDFORD        CLOUDY    65  60  81 SE5       30.08S
WAUSAU         CLOUDY    69  60  73 SE6       30.07F
WIS RAPIDS     CLOUDY    72  60  66 S7        30.07F
MARSHFIELD     CLOUDY    71  61  70 SE6       30.06F
RICE LAKE      CLOUDY    71  59  66 E8        30.05S
$$

...NORTHEAST IOWA...


CITY           SKY/WX    TMP DP  RH WIND       PRES   REMARKS
WATERLOO       CLOUDY    72  66  81 SE13      29.96S
DUBUQUE        CLOUDY    69  64  84 SE13      30.03F
DECORAH        CLOUDY    68  64  88 SE9       29.99F
MASON CITY     LGT RAIN  67  66  97 VRB3      29.98R FOG
CHARLES CITY   CLOUDY    68  66  94 SE10      29.97F FOG
OELWEIN        CLOUDY    72  66  83 SE14G23   29.99S
$$

...ELSEWHERE IN IOWA...


CITY           SKY/WX    TMP DP  RH WIND       PRES   REMARKS
DES MOINES     CLOUDY    78  72  81 SE12      29.92F
IOWA CITY      CLOUDY    68  68 100 E9        29.99R
FORT DODGE     CLOUDY    73  70  88 S7        29.93F
MARSHALLTOWN   CLOUDY    74  69  85 SE15      29.95F
CEDAR RAPIDS   CLOUDY    69  67  93 E13       29.98F
$$

...NORTHERN ILLINOIS...


CITY           SKY/WX    TMP DP  RH WIND       PRES   REMARKS
CHICAGO-OHARE  PTSUNNY   74  56  53 NE10      30.07F
DUPAGE         MOSUNNY   79  57  46 E9        30.06S
CHICAGO-MIDWAY PTSUNNY   76  60  57 NE9       30.06F
MOLINE         TSTM      68  66  93 N5        30.06R VSB 3/4
ROCKFORD       CLOUDY    74  59  59 E8        30.06F
STERLING       CLOUDY    73  64  73 E8        30.04S
PEORIA         MOSUNNY   85  71  63 E8        30.00F HX  90
$$

NOTE: "FAIR" INDICATES FEW OR NO CLOUDS BELOW 12,000 FEET WITH NO
SIGNIFICANT WEATHER AND/OR OBSTRUCTIONS TO VISIBILITY. WIND
SPEEDS ARE IN MILES-PER-HOUR.



USA.gov is the U.S. government's official web portal to all federal, state and local government web resources and services.